Time,TemperatureF,DewpointF,PressureIn,WindDirection,WindDirectionDegrees,WindSpeedMPH,WindSpeedGustMPH,Humidity,HourlyPrecipIn,Conditions,Clouds,dailyrainin,SoftwareType,DateUTC
2013-05-26 00:02:00,54.0,35.0,30.23,SE,135,0.0,0.0,49,-99.99,,,-99.99,,2013-05-26 05:02:00,
2013-05-26 00:12:00,54.0,35.0,30.23,SE,135,0.0,0.0,49,-99.99,,,-99.99,,2013-05-26 05:12:00,
2013-05-26 00:22:00,53.0,35.0,30.23,SE,135,0.0,0.0,50,-99.99,,,-99.99,,2013-05-26 05:22:00,
2013-05-26 00:32:00,53.0,35.0,30.23,South,180,0.0,0.0,51,-99.99,,,-99.99,,2013-05-26 05:32:00,
2013-05-26 00:42:00,53.0,35.0,30.23,South,180,0.0,0.0,51,-99.99,,,-99.99,,2013-05-26 05:42:00,
2013-05-26 00:52:00,53.0,35.0,30.23,South,180,0.0,0.0,51,-99.99,,,-99.99,,2013-05-26 05:52:00,
2013-05-26 01:01:00,53.0,35.0,30.23,South,180,0.0,0.0,51,-99.99,,,-99.99,,2013-05-26 06:01:00,
2013-05-26 01:32:00,51.0,35.0,30.23,South,180,0.0,0.0,55,-99.99,,,-99.99,,2013-05-26 06:32:00,
2013-05-26 01:42:00,51.0,35.0,30.23,South,180,0.0,0.0,55,-99.99,,,-99.99,,2013-05-26 06:42:00,
2013-05-26 01:52:00,50.0,35.0,30.23,South,180,0.0,0.0,56,-99.99,,,-99.99,,2013-05-26 06:52:00,
2013-05-26 02:01:00,50.0,35.0,30.23,South,180,0.0,0.0,57,-99.99,,,-99.99,,2013-05-26 07:01:00,
2013-05-26 02:11:00,50.0,35.0,30.23,South,180,0.0,0.0,57,-99.99,,,-99.99,,2013-05-26 07:11:00,
2013-05-26 02:21:00,49.0,35.0,30.22,South,180,0.0,0.0,59,-99.99,,,-99.99,,2013-05-26 07:21:00,
2013-05-26 02:31:00,49.0,35.0,30.22,South,180,0.0,0.0,59,-99.99,,,-99.99,,2013-05-26 07:31:00,
2013-05-26 02:42:00,49.0,35.0,30.22,South,180,0.0,0.0,59,-99.99,,,-99.99,,2013-05-26 07:42:00,
2013-05-26 02:52:00,49.0,37.0,30.22,South,180,0.0,0.0,62,-99.99,,,-99.99,,2013-05-26 07:52:00,
2013-05-26 03:01:00,48.0,36.0,30.22,South,180,0.0,0.0,63,-99.99,,,-99.99,,2013-05-26 08:01:00,
2013-05-26 03:12:00,48.0,36.0,30.22,South,180,0.0,0.0,63,-99.99,,,-99.99,,2013-05-26 08:12:00,
2013-05-26 03:21:00,48.0,36.0,30.22,South,180,0.0,0.0,63,-99.99,,,-99.99,,2013-05-26 08:21:00,
2013-05-26 03:32:00,48.0,36.0,30.22,South,180,0.0,0.0,63,-99.99,,,-99.99,,2013-05-26 08:32:00,
2013-05-26 05:23:00,46.0,35.0,30.20,East,90,0.0,0.0,64,-99.99,,,-99.99,,2013-05-26 10:23:00,
2013-05-26 05:33:00,46.0,35.0,30.20,East,90,0.0,0.0,64,-99.99,,,-99.99,,2013-05-26 10:33:00,
2013-05-26 05:42:00,46.0,35.0,30.21,West,270,0.0,0.0,66,-99.99,,,-99.99,,2013-05-26 10:42:00,
2013-05-26 05:52:00,46.0,35.0,30.21,West,270,0.0,0.0,66,-99.99,,,-99.99,,2013-05-26 10:52:00,
2013-05-26 06:03:00,46.0,35.0,30.21,West,270,0.0,0.0,66,-99.99,,,-99.99,,2013-05-26 11:03:00,
2013-05-26 06:11:00,46.0,35.0,30.21,West,270,0.0,0.0,66,-99.99,,,-99.99,,2013-05-26 11:11:00,
2013-05-26 06:22:00,46.0,35.0,30.22,NE,45,0.0,0.0,65,-99.99,,,-99.99,,2013-05-26 11:22:00,
2013-05-26 06:32:00,46.0,35.0,30.22,NE,45,0.0,0.0,65,-99.99,,,-99.99,,2013-05-26 11:32:00,
2013-05-26 06:42:00,46.0,35.0,30.22,NE,45,0.0,0.0,65,-99.99,,,-99.99,,2013-05-26 11:42:00,
2013-05-26 06:52:00,46.0,35.0,30.22,NE,45,0.0,0.0,65,-99.99,,,-99.99,,2013-05-26 11:52:00,
2013-05-26 07:02:00,47.0,35.0,30.24,NE,45,0.0,0.0,63,-99.99,,,-99.99,,2013-05-26 12:02:00,
2013-05-26 07:12:00,47.0,35.0,30.24,NE,45,0.0,0.0,63,-99.99,,,-99.99,,2013-05-26 12:12:00,
2013-05-26 07:21:00,47.0,35.0,30.24,NE,45,0.0,0.0,63,-99.99,,,-99.99,,2013-05-26 12:21:00,
2013-05-26 07:32:00,48.0,36.0,30.22,NNE,31,2.0,3.0,63,-99.99,,,-99.99,,2013-05-26 12:32:00,
2013-05-26 07:42:00,48.0,36.0,30.22,NNE,31,2.0,3.0,63,-99.99,,,-99.99,,2013-05-26 12:42:00,
2013-05-26 07:52:00,48.0,36.0,30.22,NNE,31,2.0,3.0,63,-99.99,,,-99.99,,2013-05-26 12:52:00,
2013-05-26 08:02:00,48.0,36.0,30.22,NNE,31,2.0,3.0,63,-99.99,,,-99.99,,2013-05-26 13:02:00,
2013-05-26 08:32:00,53.0,37.0,30.23,East,85,3.0,5.0,54,-99.99,,,-99.99,,2013-05-26 13:32:00,
2013-05-26 08:42:00,55.0,37.0,30.24,ENE,65,2.0,3.0,51,-99.99,,,-99.99,,2013-05-26 13:42:00,
2013-05-26 08:52:00,55.0,37.0,30.24,ENE,65,2.0,3.0,51,-99.99,,,-99.99,,2013-05-26 13:52:00,
2013-05-26 09:02:00,55.0,37.0,30.24,ENE,65,2.0,3.0,51,-99.99,,,-99.99,,2013-05-26 14:02:00,
2013-05-26 09:11:00,55.0,37.0,30.24,ENE,65,2.0,3.0,51,-99.99,,,-99.99,,2013-05-26 14:11:00,
2013-05-26 09:21:00,58.0,38.0,30.23,SSE,166,1.0,4.0,48,-99.99,,,-99.99,,2013-05-26 14:21:00,
2013-05-26 09:32:00,58.0,37.0,30.23,East,90,1.0,2.0,46,-99.99,,,-99.99,,2013-05-26 14:32:00,
2013-05-26 09:42:00,58.0,37.0,30.23,WNW,285,1.0,3.0,46,-99.99,,,-99.99,,2013-05-26 14:42:00,
2013-05-26 09:52:00,58.0,37.0,30.23,WNW,285,1.0,3.0,46,-99.99,,,-99.99,,2013-05-26 14:52:00,
2013-05-26 10:01:00,60.0,40.0,30.22,SE,145,2.0,2.0,47,-99.99,,,-99.99,,2013-05-26 15:01:00,
2013-05-26 10:12:00,60.0,40.0,30.22,SE,145,2.0,2.0,47,-99.99,,,-99.99,,2013-05-26 15:12:00,
2013-05-26 10:22:00,61.0,38.0,30.23,SE,135,1.0,2.0,43,-99.99,,,-99.99,,2013-05-26 15:22:00,
2013-05-26 10:33:00,63.0,38.0,30.22,NE,49,1.0,3.0,40,-99.99,,,-99.99,,2013-05-26 15:33:00,
2013-05-26 10:43:00,63.0,38.0,30.22,NE,49,1.0,3.0,40,-99.99,,,-99.99,,2013-05-26 15:43:00,
2013-05-26 10:53:00,63.0,38.0,30.22,NE,49,1.0,3.0,40,-99.99,,,-99.99,,2013-05-26 15:53:00,
2013-05-26 11:03:00,65.0,39.0,30.22,East,95,1.0,3.0,38,-99.99,,,-99.99,,2013-05-26 16:03:00,
2013-05-26 11:12:00,67.0,39.0,30.23,ENE,61,1.0,5.0,36,-99.99,,,-99.99,,2013-05-26 16:12:00,
2013-05-26 11:23:00,67.0,39.0,30.23,ENE,61,1.0,5.0,36,-99.99,,,-99.99,,2013-05-26 16:23:00,
2013-05-26 11:33:00,68.0,39.0,30.22,SSE,147,1.0,3.0,34,-99.99,,,-99.99,,2013-05-26 16:33:00,
2013-05-26 11:42:00,69.0,40.0,30.22,ESE,108,3.0,3.0,35,-99.99,,,-99.99,,2013-05-26 16:42:00,
2013-05-26 11:52:00,69.0,40.0,30.22,ESE,108,3.0,3.0,35,-99.99,,,-99.99,,2013-05-26 16:52:00,
2013-05-26 12:02:00,73.0,41.0,30.22,South,171,1.0,3.0,32,-99.99,,,-99.99,,2013-05-26 17:02:00,
2013-05-26 12:11:00,73.0,41.0,30.22,South,171,1.0,3.0,32,-99.99,,,-99.99,,2013-05-26 17:11:00,
2013-05-26 12:22:00,74.0,42.0,30.21,NNE,29,1.0,4.0,32,-99.99,,,-99.99,,2013-05-26 17:22:00,
2013-05-26 12:32:00,74.0,41.0,30.21,ENE,58,1.0,4.0,30,-99.99,,,-99.99,,2013-05-26 17:32:00,
2013-05-26 12:42:00,74.0,41.0,30.21,ENE,58,1.0,4.0,30,-99.99,,,-99.99,,2013-05-26 17:42:00,
2013-05-26 12:52:00,74.0,41.0,30.21,ENE,58,1.0,4.0,30,-99.99,,,-99.99,,2013-05-26 17:52:00,
2013-05-26 13:01:00,74.0,41.0,30.21,ENE,58,1.0,4.0,30,-99.99,,,-99.99,,2013-05-26 18:01:00,
2013-05-26 13:32:00,73.0,39.0,30.19,SE,135,1.0,5.0,29,-99.99,,,-99.99,,2013-05-26 18:32:00,
2013-05-26 13:42:00,73.0,39.0,30.19,SE,135,1.0,5.0,29,-99.99,,,-99.99,,2013-05-26 18:42:00,
2013-05-26 13:52:00,73.0,39.0,30.19,SE,135,1.0,5.0,29,-99.99,,,-99.99,,2013-05-26 18:52:00,
2013-05-26 14:01:00,72.0,40.0,30.18,NNE,33,1.0,3.0,31,-99.99,,,-99.99,,2013-05-26 19:01:00,
2013-05-26 14:11:00,72.0,40.0,30.18,NNE,33,1.0,3.0,31,-99.99,,,-99.99,,2013-05-26 19:11:00,
2013-05-26 14:22:00,71.0,37.0,30.18,SE,130,0.0,5.0,29,-99.99,,,-99.99,,2013-05-26 19:22:00,
2013-05-26 14:32:00,71.0,39.0,30.17,East,90,0.0,3.0,31,-99.99,,,-99.99,,2013-05-26 19:32:00,
2013-05-26 14:42:00,70.0,37.0,30.17,ESE,121,1.0,4.0,30,-99.99,,,-99.99,,2013-05-26 19:42:00,
2013-05-26 14:52:00,70.0,37.0,30.17,ESE,121,1.0,4.0,30,-99.99,,,-99.99,,2013-05-26 19:52:00,
2013-05-26 15:02:00,70.0,38.0,30.17,SE,140,2.0,3.0,31,-99.99,,,-99.99,,2013-05-26 20:02:00,
2013-05-26 15:11:00,70.0,38.0,30.17,SE,140,2.0,3.0,31,-99.99,,,-99.99,,2013-05-26 20:11:00,
2013-05-26 15:22:00,70.0,38.0,30.17,SE,140,2.0,3.0,31,-99.99,,,-99.99,,2013-05-26 20:22:00,
2013-05-26 15:32:00,70.0,36.0,30.16,SSE,153,2.0,3.0,29,-99.99,,,-99.99,,2013-05-26 20:32:00,
2013-05-26 15:42:00,70.0,37.0,30.17,SE,126,0.0,3.0,30,-99.99,,,-99.99,,2013-05-26 20:42:00,
2013-05-26 15:52:00,70.0,37.0,30.17,SE,126,0.0,3.0,30,-99.99,,,-99.99,,2013-05-26 20:52:00,
2013-05-26 16:02:00,70.0,37.0,30.17,SE,126,0.0,3.0,30,-99.99,,,-99.99,,2013-05-26 21:02:00,
2013-05-26 16:11:00,70.0,37.0,30.17,SE,126,0.0,3.0,30,-99.99,,,-99.99,,2013-05-26 21:11:00,
2013-05-26 16:22:00,70.0,40.0,30.16,East,90,1.0,5.0,33,-99.99,,,-99.99,,2013-05-26 21:22:00,
2013-05-26 16:33:00,68.0,39.0,30.14,SE,127,2.0,2.0,35,-99.99,,,-99.99,,2013-05-26 21:33:00,
2013-05-26 16:43:00,68.0,39.0,30.14,East,90,1.0,1.0,35,-99.99,,,-99.99,,2013-05-26 21:43:00,
2013-05-26 16:53:00,68.0,39.0,30.14,East,90,1.0,1.0,35,-99.99,,,-99.99,,2013-05-26 21:53:00,
2013-05-26 17:02:00,68.0,40.0,30.14,ESE,105,1.0,2.0,36,-99.99,,,-99.99,,2013-05-26 22:02:00,
2013-05-26 17:12:00,68.0,40.0,30.14,ESE,105,1.0,2.0,36,-99.99,,,-99.99,,2013-05-26 22:12:00,
2013-05-26 17:23:00,67.0,39.0,30.13,SE,135,0.0,5.0,36,-99.99,,,-99.99,,2013-05-26 22:23:00,
2013-05-26 17:33:00,67.0,40.0,30.13,South,186,0.0,4.0,37,-99.99,,,-99.99,,2013-05-26 22:33:00,
2013-05-26 17:42:00,67.0,39.0,30.12,SSW,193,0.0,2.0,36,-99.99,,,-99.99,,2013-05-26 22:42:00,
2013-05-26 17:53:00,67.0,39.0,30.12,SSW,193,0.0,2.0,36,-99.99,,,-99.99,,2013-05-26 22:53:00,
2013-05-26 18:02:00,67.0,39.0,30.12,South,175,1.0,3.0,36,-99.99,,,-99.99,,2013-05-26 23:02:00,
2013-05-26 18:11:00,67.0,39.0,30.12,South,175,1.0,3.0,36,-99.99,,,-99.99,,2013-05-26 23:11:00,
2013-05-26 18:22:00,67.0,39.0,30.12,South,175,1.0,3.0,36,-99.99,,,-99.99,,2013-05-26 23:22:00,
2013-05-26 18:32:00,66.0,39.0,30.11,SE,135,0.0,4.0,37,-99.99,,,-99.99,,2013-05-26 23:32:00,
2013-05-26 18:43:00,65.0,39.0,30.11,South,175,0.0,4.0,38,-99.99,,,-99.99,,2013-05-26 23:43:00,
2013-05-26 18:52:00,65.0,39.0,30.11,South,175,0.0,4.0,38,-99.99,,,-99.99,,2013-05-26 23:52:00,
2013-05-26 19:02:00,65.0,39.0,30.10,NW,308,0.0,3.0,38,-99.99,,,-99.99,,2013-05-27 00:02:00,
2013-05-26 19:11:00,65.0,39.0,30.10,NW,308,0.0,3.0,38,-99.99,,,-99.99,,2013-05-27 00:11:00,
2013-05-26 19:21:00,64.0,38.0,30.12,ESE,117,0.0,4.0,38,-99.99,,,-99.99,,2013-05-27 00:21:00,
2013-05-26 19:32:00,64.0,39.0,30.11,NE,54,0.0,2.0,39,-99.99,,,-99.99,,2013-05-27 00:32:00,
2013-05-26 19:42:00,64.0,39.0,30.11,NE,54,0.0,2.0,39,-99.99,,,-99.99,,2013-05-27 00:42:00,
2013-05-26 19:52:00,64.0,39.0,30.11,NE,54,0.0,2.0,39,-99.99,,,-99.99,,2013-05-27 00:52:00,
2013-05-26 20:01:00,63.0,36.0,30.12,SE,135,1.0,3.0,37,-99.99,,,-99.99,,2013-05-27 01:01:00,
2013-05-26 20:11:00,63.0,36.0,30.12,SE,135,1.0,3.0,37,-99.99,,,-99.99,,2013-05-27 01:11:00,
2013-05-26 20:22:00,63.0,36.0,30.12,SE,135,0.0,2.0,37,-99.99,,,-99.99,,2013-05-27 01:22:00,
2013-05-26 20:31:00,62.0,35.0,30.13,ENE,69,0.0,1.0,37,-99.99,,,-99.99,,2013-05-27 01:31:00,
2013-05-26 20:42:00,62.0,35.0,30.13,ENE,69,0.0,1.0,37,-99.99,,,-99.99,,2013-05-27 01:42:00,
2013-05-26 20:52:00,62.0,35.0,30.13,ENE,69,0.0,1.0,37,-99.99,,,-99.99,,2013-05-27 01:52:00,
2013-05-26 21:01:00,62.0,36.0,30.14,SE,135,0.0,0.0,38,-99.99,,,-99.99,,2013-05-27 02:01:00,
2013-05-26 21:11:00,62.0,36.0,30.14,SE,135,0.0,0.0,38,-99.99,,,-99.99,,2013-05-27 02:11:00,
2013-05-26 21:22:00,61.0,36.0,30.13,East,90,0.0,2.0,40,-99.99,,,-99.99,,2013-05-27 02:22:00,
2013-05-26 21:32:00,61.0,36.0,30.13,East,90,0.0,2.0,40,-99.99,,,-99.99,,2013-05-27 02:32:00,
2013-05-26 21:42:00,61.0,36.0,30.13,East,90,0.0,2.0,40,-99.99,,,-99.99,,2013-05-27 02:42:00,
2013-05-26 21:52:00,61.0,36.0,30.13,East,90,0.0,2.0,40,-99.99,,,-99.99,,2013-05-27 02:52:00,
2013-05-26 22:02:00,60.0,36.0,30.12,SSE,162,0.0,3.0,40,-99.99,,,-99.99,,2013-05-27 03:02:00,
2013-05-26 22:11:00,60.0,36.0,30.12,SSE,162,0.0,3.0,40,-99.99,,,-99.99,,2013-05-27 03:11:00,
2013-05-26 22:21:00,60.0,36.0,30.11,SE,146,0.0,1.0,41,-99.99,,,-99.99,,2013-05-27 03:21:00,
2013-05-26 22:33:00,60.0,36.0,30.11,East,90,0.0,2.0,41,-99.99,,,-99.99,,2013-05-27 03:33:00,
2013-05-26 22:42:00,60.0,36.0,30.11,East,90,0.0,2.0,41,-99.99,,,-99.99,,2013-05-27 03:42:00,
2013-05-26 22:53:00,60.0,37.0,30.11,SW,220,0.0,1.0,42,-99.99,,,-99.99,,2013-05-27 03:53:00,
2013-05-26 23:02:00,60.0,37.0,30.11,SW,220,0.0,1.0,42,-99.99,,,-99.99,,2013-05-27 04:02:00,
2013-05-26 23:12:00,60.0,37.0,30.11,SW,220,0.0,1.0,42,-99.99,,,-99.99,,2013-05-27 04:12:00,
2013-05-26 23:23:00,60.0,37.0,30.11,SW,220,0.0,1.0,42,-99.99,,,-99.99,,2013-05-27 04:23:00,
2013-05-26 23:33:00,59.0,37.0,30.11,SW,236,0.0,0.0,44,-99.99,,,-99.99,,2013-05-27 04:33:00,
2013-05-26 23:43:00,59.0,37.0,30.11,SW,236,0.0,0.0,44,-99.99,,,-99.99,,2013-05-27 04:43:00,
2013-05-26 23:52:00,59.0,37.0,30.11,SW,236,0.0,0.0,44,-99.99,,,-99.99,,2013-05-27 04:52:00,